Weather History for KD25 - January, 2014

Change the Weather History Date:

Wednesday, January 22, 2014

  Actual Average (KARV) Record (KARV)
Temperature  
Mean Temperature -2 °F -  
Max Temperature 1 °F 25 °F 45 °F (1942)
Min Temperature -4 °F 4 °F -30 °F (1927)
Degree Days  
Heating Degree Days 66    
Moisture  
Dew Point -8 °F    
Average Humidity 75    
Maximum Humidity 81    
Minimum Humidity 63    
Precipitation  
Precipitation 0.00 in - - ()
Sea Level Pressure  
Sea Level Pressure 29.88 in    
Wind  
Wind Speed 9 mph (NW)    
Max Wind Speed 17 mph    
Max Gust Speed 25 mph    
Visibility 5 miles    
Events Snow    
Averages and records for this station are not official NWS values.
T = Trace of Precipitation, MM = Missing Value Source: NWS Daily Summary

Daily Weather History Graph

Daily Weather History Graph

Search for Another Location

Airport or City:

Trip Planner

Search our weather history database for the weather conditions in past years. The results will help you decide how hot, cold, wet, or windy it might be!

Date:

Astronomy

Jan. 22, 2014 Rise Set
Actual Time 7:32 AM CST 4:50 PM CST
Civil Twilight 6:59 AM CST 5:23 PM CST
Nautical Twilight 6:23 AM CST 5:59 PM CST
Astronomical Twilight 5:47 AM CST 6:35 PM CST
Moon 11:47 PM CST (1/22) 10:11 AM CST (1/22)
Length of Visible Light 10h 23m
Length of Day
9h 17m
Waning Gibbous, 65% of the Moon is Illuminated
Jan 22
Waning Gibbous
Jan 23
Last Quarter
Jan 30
New
Feb 6
First Quarter
Feb 14
Full

Hourly Weather History & Observations

Time (CST) Temp. Windchill Dew Point Humidity Pressure Visibility Wind Dir Wind Speed Gust Speed Precip Events Conditions
12:15 AM -2.6 °F -14.6 °F -7.6 °F 79% 29.89 in 5.0 mi South 5.8 mph - N/A Snow Light Snow
12:35 AM -2.6 °F -16.0 °F -7.6 °F 79% 29.87 in 4.0 mi South 6.9 mph - N/A Snow Light Snow
12:55 AM -2.6 °F -16.0 °F -7.6 °F 79% 29.86 in 4.0 mi SSW 6.9 mph - N/A Snow Light Snow
1:15 AM -2.4 °F -14.4 °F -7.4 °F 79% 29.85 in 3.0 mi SSW 5.8 mph - N/A Snow Light Snow
1:35 AM -2.4 °F -14.4 °F -7.2 °F 80% 29.84 in 4.0 mi SSW 5.8 mph - N/A Snow Light Snow
1:55 AM -2.4 °F -14.4 °F -7.1 °F 80% 29.84 in 3.0 mi SSW 5.8 mph - N/A Snow Light Snow
2:15 AM -2.2 °F -14.2 °F -7.1 °F 80% 29.82 in 3.0 mi SSW 5.8 mph - N/A Snow Light Snow
2:35 AM -2.2 °F -14.2 °F -6.9 °F 80% 29.82 in 2.5 mi SSW 5.8 mph - N/A Snow Light Snow
2:55 AM -2.0 °F -12.2 °F -6.7 °F 80% 29.82 in 3.0 mi SSW 4.6 mph - N/A   Overcast
3:15 AM -1.5 °F -17.1 °F -6.7 °F 78% 29.80 in 4.0 mi SW 9.2 mph - N/A Snow Light Snow
3:55 AM -1.5 °F -14.7 °F -6.7 °F 78% 29.80 in 5.0 mi WSW 6.9 mph - N/A Snow Light Snow
4:15 AM -1.7 °F -16.2 °F -6.9 °F 78% 29.79 in 7.0 mi WSW 8.1 mph - N/A Snow Light Snow
4:35 AM -1.7 °F -13.5 °F -7.1 °F 78% 29.77 in 10.0 mi WSW 5.8 mph - N/A Snow Light Snow
4:55 AM -1.8 °F -16.4 °F -7.6 °F 76% 29.78 in 10.0 mi WSW 8.1 mph - N/A Snow Light Snow
5:15 AM -1.8 °F -13.7 °F -7.4 °F 77% 29.77 in 5.0 mi WSW 5.8 mph - N/A Snow Light Snow
5:35 AM -2.2 °F -15.6 °F -7.6 °F 78% 29.76 in 7.0 mi WSW 6.9 mph - N/A Snow Light Snow
5:55 AM -2.2 °F -14.2 °F -7.8 °F 77% 29.76 in 10.0 mi West 5.8 mph - N/A   Overcast
6:15 AM -2.4 °F -15.8 °F -8.0 °F 77% 29.76 in 7.0 mi West 6.9 mph - N/A   Overcast
6:35 AM -2.4 °F -14.4 °F -8.1 °F 76% 29.77 in 10.0 mi West 5.8 mph - N/A Snow Light Snow
6:55 AM -2.6 °F -14.6 °F -8.1 °F 77% 29.76 in 10.0 mi West 5.8 mph - N/A Snow Light Snow
7:15 AM -2.6 °F -14.6 °F -8.3 °F 76% 29.76 in 10.0 mi WNW 5.8 mph - N/A   Overcast
7:35 AM -3.1 °F -15.2 °F -8.5 °F 78% 29.77 in 7.0 mi West 5.8 mph - N/A Snow Light Snow
7:55 AM -3.8 °F -14.4 °F -9.2 °F 78% 29.77 in 4.0 mi West 4.6 mph - N/A Snow Light Snow
8:15 AM -4.4 °F -15.0 °F -9.4 °F 79% 29.77 in 5.0 mi West 4.6 mph - N/A Snow Light Snow
8:35 AM -3.8 °F -17.5 °F -9.4 °F 77% 29.77 in 5.0 mi West 6.9 mph - N/A   Haze
8:55 AM -3.5 °F -17.1 °F -9.4 °F 76% 29.77 in 10.0 mi West 6.9 mph - N/A   Overcast
9:15 AM -3.3 °F -15.4 °F -9.4 °F 75% 29.77 in 7.0 mi WNW 5.8 mph - N/A   Overcast
9:35 AM -3.1 °F -16.7 °F -9.4 °F 74% 29.77 in 7.0 mi WNW 6.9 mph - N/A   Overcast
9:55 AM -2.6 °F -18.4 °F -9.4 °F 73% 29.77 in 10.0 mi NW 9.2 mph - N/A   Overcast
10:15 AM -2.4 °F -19.2 °F -9.6 °F 71% 29.78 in 7.0 mi NW 10.4 mph 16.1 mph N/A   Mostly Cloudy
10:35 AM -1.1 °F -20.1 °F -9.2 °F 69% 29.78 in 5.0 mi NW 13.8 mph 17.3 mph N/A   Haze
10:55 AM -0.4 °F -19.2 °F -8.3 °F 69% 29.78 in 2.5 mi NW 13.8 mph 23.0 mph N/A   Haze
11:15 AM -1.7 °F -21.5 °F -10.3 °F 67% 29.79 in 2.0 mi North 15.0 mph 23.0 mph N/A   Haze
11:35 AM -1.5 °F -21.3 °F -10.7 °F 65% 29.79 in 3.0 mi NNW 15.0 mph 21.9 mph N/A   Haze
11:55 AM -1.7 °F -18.3 °F -8.9 °F 71% 29.80 in 1.5 mi North 10.4 mph 19.6 mph N/A   Haze
12:15 PM -1.3 °F -22.3 °F -11.2 °F 63% 29.80 in 7.0 mi NW 17.3 mph 24.2 mph N/A   Overcast
12:35 PM -1.7 °F -18.3 °F -9.0 °F 71% 29.81 in 2.0 mi North 10.4 mph 16.1 mph N/A Snow Light Snow
12:55 PM -2.4 °F -20.9 °F -10.3 °F 69% 29.81 in 3.0 mi NNW 12.7 mph - N/A   Haze
1:15 PM -0.8 °F -18.9 °F -10.1 °F 65% 29.82 in 3.0 mi NNW 12.7 mph 18.4 mph N/A   Haze
1:35 PM -1.8 °F -21.7 °F -11.0 °F 65% 29.82 in 2.5 mi NW 15.0 mph 24.2 mph N/A   Haze
1:55 PM -1.1 °F -20.1 °F -10.3 °F 65% 29.83 in 4.0 mi NNW 13.8 mph 21.9 mph N/A   Haze
2:15 PM -1.7 °F -22.2 °F -11.0 °F 64% 29.84 in 4.0 mi NW 16.1 mph 25.3 mph N/A   Haze
2:35 PM -0.8 °F -19.6 °F -9.8 °F 66% 29.84 in 7.0 mi NW 13.8 mph 19.6 mph N/A   Overcast
2:55 PM -0.4 °F -18.4 °F -8.7 °F 68% 29.84 in 3.0 mi NW 12.7 mph 23.0 mph N/A   Haze
3:15 PM -0.6 °F -19.4 °F -7.8 °F 72% 29.86 in 2.5 mi WNW 13.8 mph 19.6 mph N/A   Haze
3:35 PM -0.6 °F -20.1 °F -6.7 °F 75% 29.86 in 1.8 mi NW 15.0 mph - N/A Snow Light Snow
3:55 PM -0.6 °F -17.8 °F -5.8 °F 79% 29.88 in 1.2 mi WNW 11.5 mph 17.3 mph N/A Snow Light Snow
4:15 PM -0.2 °F -16.5 °F -4.9 °F 81% 29.88 in 0.8 mi NW 10.4 mph - N/A Snow Light Snow
4:35 PM 1.2 °F -14.7 °F -3.6 °F 80% 29.90 in 0.8 mi NNW 10.4 mph 17.3 mph N/A Snow Light Snow
4:55 PM 1.2 °F -17.1 °F -4.4 °F 77% 29.91 in 1.2 mi NNW 13.8 mph 19.6 mph N/A Snow Light Snow
5:15 PM 1.0 °F -14.9 °F -4.4 °F 78% 29.92 in 2.0 mi NNW 10.4 mph 17.3 mph N/A Snow Light Snow
5:35 PM 0.9 °F -15.1 °F -4.0 °F 80% 29.94 in 0.8 mi North 10.4 mph 18.4 mph N/A Snow Snow
5:55 PM 1.0 °F -14.9 °F -4.0 °F 79% 29.95 in 1.0 mi North 10.4 mph 19.6 mph N/A Snow Light Snow
6:15 PM 0.5 °F -15.6 °F -5.3 °F 77% 29.97 in 3.0 mi North 10.4 mph 19.6 mph N/A Snow Light Snow
6:35 PM 0.1 °F -17.7 °F -6.7 °F 73% 29.98 in 5.0 mi NNW 12.7 mph 18.4 mph N/A Snow Light Snow
6:55 PM -0.4 °F -16.7 °F -6.3 °F 76% 29.99 in 4.0 mi North 10.4 mph 18.4 mph N/A Snow Light Snow
7:15 PM -0.4 °F -18.4 °F -6.7 °F 75% 30.00 in 5.0 mi North 12.7 mph 19.6 mph N/A Snow Light Snow
7:35 PM -0.8 °F -17.2 °F -7.4 °F 73% 30.01 in 7.0 mi North 10.4 mph 21.9 mph N/A   Overcast
7:55 PM -0.9 °F -17.4 °F -6.9 °F 76% 30.02 in 5.0 mi North 10.4 mph - N/A Snow Light Snow
8:15 PM -0.9 °F -15.3 °F -6.7 °F 77% 30.03 in 5.0 mi North 8.1 mph - N/A Snow Light Snow
8:35 PM -1.3 °F -16.8 °F -7.6 °F 75% 30.03 in 5.0 mi North 9.2 mph - N/A Snow Light Snow
8:55 PM -0.9 °F -18.3 °F -7.1 °F 75% 30.05 in 5.0 mi North 11.5 mph 21.9 mph N/A Snow Light Snow
9:15 PM -0.6 °F -19.4 °F -6.7 °F 75% 30.05 in 5.0 mi North 13.8 mph 19.6 mph N/A   Haze
9:35 PM -0.4 °F -16.7 °F -7.6 °F 72% 30.06 in 5.0 mi North 10.4 mph 19.6 mph N/A Snow Light Snow
9:55 PM -0.4 °F -18.4 °F -7.1 °F 73% 30.08 in 4.0 mi North 12.7 mph 23.0 mph N/A Snow Light Snow
10:15 PM -0.4 °F -16.7 °F -6.9 °F 74% 30.09 in 5.0 mi NNW 10.4 mph 18.4 mph N/A Snow Light Snow
10:35 PM -0.4 °F -17.6 °F -7.2 °F 73% 30.10 in 7.0 mi NNW 11.5 mph 23.0 mph N/A   Overcast
10:55 PM -0.6 °F -19.4 °F -7.6 °F 72% 30.11 in 10.0 mi North 13.8 mph 23.0 mph N/A   Overcast
11:15 PM -0.8 °F -21.0 °F -7.6 °F 73% 30.12 in 7.0 mi North 16.1 mph 23.0 mph N/A   Overcast
11:35 PM -0.9 °F -19.9 °F -7.6 °F 73% 30.13 in 7.0 mi NNW 13.8 mph 20.7 mph N/A   Overcast
11:55 PM -0.9 °F -15.3 °F -7.6 °F 73% 30.15 in 7.0 mi North 8.1 mph 18.4 mph N/A   Overcast